Follow iAlert.com on twitter @ialertcom
Search For Active Alerts in Your Area  
  Hi Guest:  [ Sign-up / Services ] [ Login ]

Current weather by "City, St" or "zip code"  
 

Advertise Here

Current Conditions: Pottstown, Pottstown Limerick Airport, PA

Fair


69.0 F

Last Updated on Jul 21 2018, 8:54 am EDT
Humidity: 76%
Wind Speed: 5.8 mph
Barometer 30.07 in
Dewpoint: 61.0 F
Visibility: 10.00 mi
Precip: --
Heat Index: NA
Wind Chill: NA
Current conditions at:

Pottstown, Pottstown Limerick Airport, PA (KPTW)

Lat: 40.23 Lon: 75.554

Local Radar Image active severe weather and emergency alerts image image weather storm and storm spotter reports image weather observation monitoring service image
Local
Radar
Active
Alerts
Storm Reports Obs
Monitoring

iAlert Weather and Emergency Alert Notification Services:


ialert severe weather and emergency alerts by text message and email ialert daily weather forecast by email and text message service ialert real-time weather-observation monitoring and alert notification service ialert storm report monitoring alert notification

Observation History for Pottstown, Pottstown Limerick Airport, PA


Time Wind
(mph)
Vis
(mi)
Weather Precip (in) Temperature (F) Relative
Humidity
Wind
Chill
(°F)
Heat
Index
(°F)
Pressure
Air Dwpt altimeter
(in)
sea level
(mb)
8:54 am EDT 5.8 10.00 Fair -- 69.0 61.0 76% NA NA 30.07 1017.7
7:54 am EDT NE 4.6 9.00 Partly Cloudy -- 66.0 62.1 87% NA NA 30.07 1017.8
6:54 am EDT E 4.6 9.00 A Few Clouds -- 63.0 60.1 90% 64 NA 30.07 1017.7
5:54 am EDT NE 4.6 9.00 Fair -- 62.0 60.1 93% 62 NA 30.07 1017.7
4:54 am EDT NE 3.5 10.00 Fair -- 62.0 60.1 93% NA NA 30.07 1017.9
3:54 am EDT NE 5.8 10.00 Mostly Cloudy -- 63.0 60.1 90% 63 NA 30.08 1018.1
2:54 am EDT E 3.5 10.00 Fair -- 63.0 60.1 90% NA NA 30.09 1018.5
1:54 am EDT N 0.0 10.00 Fair -- 63.0 59.0 87% NA NA 30.10 1018.8
12:54 am EDT N 0.0 10.00 Fair -- 66.0 57.9 75% NA NA 30.11 1019.0
11:54 pm EDT N 0.0 10.00 Fair -- 67.0 57.9 73% NA NA 30.11 1019.2
10:54 pm EDT S 5.8 10.00 Fair -- 69.0 57.0 66% NA NA 30.13 1019.7
9:54 pm EDT 3.5 10.00 Fair -- 71.0 55.9 59% NA NA 30.12 1019.6
8:54 pm EDT N 0.0 10.00 Fair -- 73.0 55.0 53% NA NA 30.11 1019.0
7:54 pm EDT 6.9 10.00 Fair -- 76.0 60.1 58% NA NA 30.09 1018.5
6:54 pm EDT 3.5 10.00 A Few Clouds -- 79.0 57.0 47% NA NA 30.08 1018.1
5:54 pm EDT E 5.8 9.00 Partly Cloudy -- 81.0 57.9 45% NA 81 30.09 1018.4
4:54 pm EDT E 5.8 9.00 Mostly Cloudy -- 82.0 57.9 44% NA 82 30.10 1018.7
3:54 pm EDT 3.5 9.00 Mostly Cloudy -- 80.0 57.0 45% NA 80 30.11 1019.3
2:54 pm EDT 4.6 10.00 Mostly Cloudy -- 81.0 57.0 44% NA 81 30.13 1019.8
1:54 pm EDT 6.9 9.00 Mostly Cloudy -- 81.0 57.9 45% NA 81 30.14 1020.3
12:54 pm EDT 5.8 9.00 Mostly Cloudy -- 78.0 60.1 54% NA NA 30.16 1020.8
11:54 am EDT S 6.9 10.00 Partly Cloudy -- 78.0 57.9 50% NA NA 30.17 1021.2
10:54 am EDT N 0.0 9.00 Fair -- 78.0 60.1 54% NA NA 30.17 1021.3
9:54 am EDT SW 5.8 9.00 Fair -- 74.0 61.0 64% NA NA 30.18 1021.6

Regional Weather Observation


Pottstown, Pottstown Limerick Airport, PA (KPTW)

Fair
69.0 F

Allentown Queen City Municipal Airport, PA (KXLL)

Fair
70.0 F

Quakertown Airport, PA (KUKT)

Fair
79.0 F

Allentown, Lehigh Valley International Airport, PA (KABE)

A Few Clouds
73.0 F

Doylestown, Doylestown Airport, PA (KDYL)

Fair
69.0 F

Philadelphia, Northeast Philadelphia Airport, PA (KPNE)

A Few Clouds
75.0 F

Advertise Here